Location: Newark
(42.8481°N, 0.4872°E)
Time: 19:44:23
(UTC+00:00)

Transit 2A - Pass Details

Date: 27 October 2020
Orbit: 595 x 963 km, 66.7° (Epoch: 03 December)

Event Time Altitude Azimuth Distance (km) Brightness Sun altitude
Rises 00:23:33 0° 184° (S) 3,590 - -58.7°
Reaches altitude 10° 00:26:13 10° 177° (S) 2,673 - -58.5°
Maximum altitude 00:32:00 39° 111° (ESE) 1,407 - -58.1°
Drops below altitude 10° 00:37:47 10° 45° (NE) 2,679 - -57.7°
Exits shadow 00:40:13 - 38° (NE) 3,515 9.9 -57.5°
Sets 00:40:27 0° 38° (NE) 3,601 10.0 -57.5°
